�������l�o���
Date,Time,MP-1(��Sv/h),MP-2(��Sv/h),MP-3(��Sv/h),MP-4(��Sv/h),MP-5(��Sv/h),MP-6(��Sv/h),MP-7(��Sv/h),MP-8(��Sv/h),����,����(m/s),���J
2018/10/27,00:00,0.789,1.193,0.840,1.483,1.088,0.462,0.811,0.770,��,7.0,��
2018/10/27,00:10,0.790,1.191,0.841,1.484,1.087,0.463,0.814,0.768,��,7.3,��
2018/10/27,00:20,0.791,1.193,0.840,1.482,1.089,0.464,0.813,0.768,��,7.5,��
2018/10/27,00:30,0.790,1.194,0.841,1.483,1.090,0.464,0.815,0.769,��,7.3,��
2018/10/27,00:40,0.791,1.191,0.842,1.479,1.088,0.464,0.812,0.768,��쓌,6.9,��
2018/10/27,00:50,0.789,1.192,0.842,1.482,1.086,0.464,0.815,0.769,��쓌,6.4,��
2018/10/27,01:00,0.789,1.192,0.841,1.483,1.087,0.463,0.814,0.771,��,7.9,��
2018/10/27,01:10,0.791,1.190,0.842,1.483,1.089,0.464,0.814,0.769,��쓌,7.2,��
2018/10/27,01:20,0.791,1.192,0.842,1.485,1.088,0.463,0.814,0.769,��쓌,5.8,��
2018/10/27,01:30,0.790,1.189,0.840,1.482,1.088,0.464,0.814,0.768,��,7.1,��
2018/10/27,01:40,0.793,1.193,0.842,1.485,1.088,0.464,0.813,0.771,��,7.8,��
2018/10/27,01:50,0.791,1.191,0.841,1.485,1.088,0.464,0.815,0.769,��,8.4,��
2018/10/27,02:00,0.790,1.190,0.843,1.484,1.087,0.465,0.815,0.768,��,8.3,�L
2018/10/27,02:10,0.790,1.193,0.841,1.485,1.086,0.466,0.813,0.769,��,8.6,�L
2018/10/27,02:20,0.791,1.191,0.840,1.484,1.087,0.465,0.813,0.769,��,7.9,�L
2018/10/27,02:30,0.792,1.192,0.842,1.483,1.091,0.465,0.813,0.771,��,8.1,�L
2018/10/27,02:40,0.792,1.195,0.842,1.483,1.088,0.464,0.814,0.770,��,8.2,�L
2018/10/27,02:50,0.792,1.194,0.843,1.485,1.087,0.464,0.815,0.771,��,6.2,�L
2018/10/27,03:00,0.789,1.194,0.839,1.484,1.086,0.465,0.814,0.769,��,6.7,�L
2018/10/27,03:10,0.792,1.190,0.843,1.483,1.085,0.466,0.815,0.769,��,8.3,�L
2018/10/27,03:20,0.792,1.188,0.842,1.483,1.085,0.465,0.815,0.769,��,10.3,�L
2018/10/27,03:30,0.791,1.186,0.842,1.482,1.083,0.466,0.812,0.770,��,10.8,�L
2018/10/27,03:40,0.788,1.183,0.841,1.477,1.077,0.464,0.809,0.768,��,10.8,�L
2018/10/27,03:50,0.784,1.174,0.837,1.476,1.069,0.465,0.809,0.765,��,9.5,�L
2018/10/27,04:00,0.781,1.168,0.837,1.474,1.068,0.464,0.807,0.764,��,8.6,�L
2018/10/27,04:10,0.783,1.165,0.835,1.467,1.062,0.465,0.808,0.763,��,7.9,�L
2018/10/27,04:20,0.779,1.163,0.832,1.469,1.063,0.463,0.806,0.762,��,7.2,�L
2018/10/27,04:30,0.780,1.165,0.832,1.466,1.063,0.464,0.807,0.762,��,7.5,�L
2018/10/27,04:40,0.781,1.162,0.833,1.468,1.061,0.464,0.805,0.762,��,7.9,�L
2018/10/27,04:50,0.781,1.164,0.831,1.468,1.063,0.464,0.804,0.763,��,7.9,��
2018/10/27,05:00,0.780,1.163,0.831,1.466,1.062,0.464,0.806,0.762,��,7.7,��
2018/10/27,05:10,0.780,1.166,0.830,1.465,1.061,0.464,0.805,0.764,��,9.0,��
2018/10/27,05:20,0.779,1.162,0.830,1.465,1.061,0.464,0.806,0.762,��쓌,9.5,�L
2018/10/27,05:30,0.779,1.163,0.830,1.466,1.062,0.462,0.806,0.764,��,9.3,��
2018/10/27,05:40,0.778,1.163,0.829,1.463,1.061,0.460,0.804,0.763,��,9.0,�L
2018/10/27,05:50,0.778,1.164,0.828,1.462,1.061,0.462,0.805,0.763,��,8.8,�L
2018/10/27,06:00,0.777,1.165,0.827,1.461,1.058,0.460,0.805,0.764,��,8.9,�L
2018/10/27,06:10,0.778,1.163,0.830,1.463,1.059,0.460,0.807,0.763,��,9.8,�L
2018/10/27,06:20,0.777,1.164,0.829,1.464,1.060,0.459,0.804,0.763,��,9.7,�L
2018/10/27,06:30,0.778,1.166,0.830,1.462,1.057,0.459,0.806,0.764,��,8.5,�L
2018/10/27,06:40,0.776,1.164,0.830,1.462,1.057,0.461,0.806,0.763,��,10.2,�L
2018/10/27,06:50,0.776,1.162,0.829,1.462,1.060,0.461,0.805,0.762,��,7.4,�L
2018/10/27,07:00,0.775,1.163,0.829,1.464,1.058,0.462,0.805,0.763,��,7.1,�L
2018/10/27,07:10,0.771,1.152,0.826,1.455,1.051,0.462,0.805,0.761,��,7.4,�L
2018/10/27,07:20,0.771,1.149,0.826,1.456,1.050,0.463,0.802,0.761,��,7.2,�L
2018/10/27,07:30,0.770,1.147,0.826,1.451,1.048,0.460,0.803,0.759,��,8.0,�L
2018/10/27,07:40,0.768,1.140,0.823,1.445,1.043,0.461,0.801,0.758,��,8.2,�L
2018/10/27,07:50,0.766,1.138,0.820,1.440,1.042,0.460,0.799,0.757,��,7.5,�L
2018/10/27,08:00,0.764,1.132,0.817,1.434,1.036,0.458,0.799,0.755,��,7.7,�L
2018/10/27,08:10,0.760,1.125,0.813,1.428,1.029,0.458,0.795,0.752,��,7.6,�L
2018/10/27,08:20,0.754,1.115,0.806,1.414,1.018,0.454,0.792,0.749,��,7.1,�L
2018/10/27,08:30,0.744,1.099,0.799,1.395,1.005,0.447,0.787,0.744,��,9.8,�L
2018/10/27,08:40,0.743,1.097,0.796,1.395,1.003,0.443,0.785,0.744,��,7.1,�L
2018/10/27,08:50,0.747,1.097,0.797,1.394,1.005,0.448,0.786,0.744,��,7.2,�L
2018/10/27,09:00,0.751,1.106,0.802,1.396,1.010,0.452,0.788,0.745,��쓌,9.6,�L
2018/10/27,09:10,0.758,1.112,0.804,1.405,1.016,0.455,0.789,0.750,��쓌,8.6,�L
2018/10/27,09:20,0.758,1.119,0.806,1.408,1.018,0.456,0.791,0.747,��,9.0,�L
2018/10/27,09:30,0.762,1.123,0.809,1.410,1.020,0.457,0.791,0.750,��쓌,10.3,�L
2018/10/27,09:40,0.761,1.123,0.807,1.413,1.020,0.456,0.790,0.750,��쓌,9.5,�L
2018/10/27,09:50,0.762,1.125,0.807,1.415,1.023,0.457,0.791,0.749,��,9.5,�L
2018/10/27,10:00,0.761,1.123,0.808,1.413,1.019,0.456,0.791,0.748,��,8.9,�L
2018/10/27,10:10,0.759,1.126,0.806,1.412,1.020,0.457,0.792,0.748,��,7.0,�L
2018/10/27,10:20,0.760,1.126,0.806,1.416,1.022,0.458,0.791,0.749,��,6.2,�L
2018/10/27,10:30,0.761,1.129,0.807,1.417,1.023,0.458,0.792,0.751,��,7.9,��
2018/10/27,10:40,0.763,1.131,0.806,1.419,1.026,0.457,0.792,0.749,��,8.9,�L
2018/10/27,10:50,0.763,1.132,0.809,1.420,1.024,0.457,0.794,0.752,��,7.2,��
2018/10/27,11:00,0.763,1.136,0.809,1.420,1.026,0.457,0.793,0.751,��,5.5,��
2018/10/27,11:10,0.763,1.134,0.807,1.421,1.029,0.458,0.794,0.752,��쓌,5.1,��
2018/10/27,11:20,0.762,1.134,0.808,1.423,1.028,0.459,0.795,0.751,��쓌,6.6,��
2018/10/27,11:30,0.762,1.138,0.810,1.426,1.030,0.459,0.795,0.751,��쓌,7.4,��
2018/10/27,11:40,0.764,1.136,0.808,1.423,1.030,0.460,0.796,0.751,��쓌,7.6,��
2018/10/27,11:50,0.765,1.136,0.808,1.425,1.032,0.460,0.796,0.751,��쓌,9.7,��
2018/10/27,12:00,0.765,1.139,0.809,1.426,1.033,0.460,0.796,0.752,��쓌,8.1,��
2018/10/27,12:10,0.766,1.141,0.811,1.425,1.033,0.457,0.798,0.752,��쓌,7.5,��
2018/10/27,12:20,0.765,1.141,0.809,1.428,1.034,0.460,0.797,0.753,��쓌,7.4,��
2018/10/27,12:30,0.764,1.139,0.810,1.428,1.032,0.460,0.797,0.753,��쓌,6.4,��
2018/10/27,12:40,0.765,1.142,0.809,1.426,1.032,0.461,0.798,0.754,��쐼,4.6,��
2018/10/27,12:50,0.765,1.145,0.809,1.428,1.032,0.460,0.799,0.753,�쐼,6.1,��
2018/10/27,13:00,0.766,1.141,0.811,1.427,1.036,0.460,0.797,0.753,�쐼,7.0,��
2018/10/27,13:10,0.766,1.142,0.810,1.429,1.034,0.461,0.798,0.753,�쐼,5.1,��
2018/10/27,13:20,0.766,1.143,0.810,1.430,1.035,0.460,0.798,0.752,���쐼,6.1,��
2018/10/27,13:30,0.766,1.142,0.812,1.429,1.035,0.460,0.799,0.754,��,8.4,��
2018/10/27,13:40,0.765,1.145,0.811,1.431,1.035,0.461,0.796,0.754,��,4.8,��
2018/10/27,13:50,0.765,1.144,0.814,1.427,1.036,0.460,0.798,0.753,��,4.4,��
2018/10/27,14:00,0.766,1.144,0.811,1.433,1.037,0.460,0.798,0.753,���쐼,5.6,��
2018/10/27,14:10,0.766,1.142,0.811,1.435,1.033,0.461,0.799,0.756,��,6.4,��
2018/10/27,14:20,0.766,1.142,0.812,1.433,1.036,0.460,0.799,0.755,��,7.7,��
2018/10/27,14:30,0.766,1.146,0.814,1.434,1.035,0.461,0.799,0.754,��,7.7,��
2018/10/27,14:40,0.766,1.144,0.811,1.434,1.036,0.459,0.799,0.753,��,9.2,��
2018/10/27,14:50,0.766,1.145,0.812,1.435,1.037,0.461,0.799,0.754,��,8.8,��
2018/10/27,15:00,0.768,1.146,0.814,1.433,1.037,0.460,0.799,0.755,��,6.7,��
2018/10/27,15:10,0.768,1.147,0.814,1.436,1.038,0.462,0.798,0.755,���k��,6.3,��
2018/10/27,15:20,0.766,1.145,0.813,1.437,1.039,0.462,0.799,0.754,���k��,4.9,��
2018/10/27,15:30,0.766,1.149,0.816,1.437,1.038,0.461,0.799,0.754,���k��,5.9,��
2018/10/27,15:40,0.766,1.148,0.815,1.439,1.040,0.462,0.798,0.756,���k��,5.9,��
2018/10/27,15:50,0.767,1.149,0.812,1.440,1.039,0.461,0.798,0.754,���k��,6.0,��
2018/10/27,16:00,0.767,1.148,0.814,1.440,1.041,0.461,0.798,0.757,���k��,6.9,��
2018/10/27,16:10,0.766,1.148,0.815,1.441,1.037,0.460,0.799,0.755,���k��,7.1,��
2018/10/27,16:20,0.767,1.146,0.813,1.441,1.036,0.459,0.800,0.757,�k��,5.8,��
2018/10/27,16:30,0.766,1.149,0.815,1.444,1.037,0.461,0.799,0.756,���k��,6.1,��
2018/10/27,16:40,0.765,1.147,0.816,1.443,1.039,0.461,0.797,0.757,�k��,4.9,��
2018/10/27,16:50,0.765,1.151,0.815,1.443,1.038,0.460,0.800,0.758,�k��,6.1,��
2018/10/27,17:00,0.767,1.152,0.814,1.442,1.040,0.461,0.799,0.757,�k��,5.5,��
2018/10/27,17:10,0.767,1.151,0.814,1.443,1.040,0.461,0.799,0.758,�k,2.8,��
2018/10/27,17:20,0.767,1.149,0.815,1.445,1.043,0.461,0.798,0.759,�k�k��,2.3,��
2018/10/27,17:30,0.766,1.152,0.815,1.443,1.042,0.461,0.799,0.757,�k�k��,3.7,��
2018/10/27,17:40,0.769,1.153,0.817,1.440,1.043,0.461,0.799,0.759,�k,4.2,��
2018/10/27,17:50,0.767,1.153,0.818,1.445,1.044,0.460,0.799,0.758,�k�k��,3.4,��
2018/10/27,18:00,0.769,1.152,0.817,1.445,1.041,0.461,0.800,0.759,�k�k��,2.6,��
2018/10/27,18:10,0.770,1.151,0.818,1.442,1.043,0.461,0.799,0.758,�k,3.2,��
2018/10/27,18:20,0.769,1.152,0.815,1.445,1.044,0.460,0.799,0.758,�k�k��,2.6,��
2018/10/27,18:30,0.769,1.153,0.817,1.442,1.044,0.459,0.800,0.758,�k�k��,1.4,��
2018/10/27,18:40,0.769,1.153,0.817,1.444,1.044,0.461,0.800,0.758,�k��,2.3,��
2018/10/27,18:50,0.770,1.154,0.817,1.444,1.042,0.459,0.800,0.758,�k�k��,3.6,��
2018/10/27,19:00,0.769,1.153,0.818,1.445,1.043,0.458,0.801,0.756,�k�k��,4.8,��
2018/10/27,19:10,0.771,1.153,0.817,1.445,1.043,0.459,0.801,0.760,�k�k��,4.4,��
2018/10/27,19:20,0.769,1.151,0.818,1.444,1.043,0.458,0.801,0.757,�k��,5.7,��
2018/10/27,19:30,0.770,1.153,0.818,1.444,1.043,0.460,0.801,0.759,�k��,7.0,��
2018/10/27,19:40,0.769,1.152,0.817,1.444,1.046,0.458,0.802,0.757,�k��,7.3,��
2018/10/27,19:50,0.770,1.152,0.817,1.446,1.043,0.459,0.802,0.759,�k��,5.8,��
2018/10/27,20:00,0.768,1.152,0.817,1.447,1.045,0.458,0.800,0.760,�k�k��,3.2,��
2018/10/27,20:10,0.768,1.152,0.817,1.446,1.041,0.458,0.801,0.758,�k�k��,3.9,��
2018/10/27,20:20,0.768,1.153,0.817,1.445,1.045,0.458,0.801,0.758,�k��,3.5,��
2018/10/27,20:30,0.769,1.153,0.819,1.445,1.045,0.458,0.802,0.757,�k�k��,2.6,��
2018/10/27,20:40,0.768,1.152,0.816,1.442,1.042,0.459,0.799,0.758,�k�k��,3.8,��
2018/10/27,20:50,0.768,1.150,0.817,1.445,1.044,0.456,0.799,0.758,�k�k��,5.3,��
2018/10/27,21:00,0.768,1.154,0.816,1.445,1.044,0.456,0.800,0.759,�k�k��,7.1,��
2018/10/27,21:10,0.770,1.154,0.817,1.446,1.042,0.456,0.802,0.760,�k�k��,7.5,��
2018/10/27,21:20,0.770,1.152,0.816,1.445,1.046,0.458,0.801,0.759,�k��,9.2,��
2018/10/27,21:30,0.773,1.156,0.815,1.445,1.044,0.457,0.799,0.757,�k�k��,8.0,��
2018/10/27,21:40,0.768,1.154,0.817,1.445,1.043,0.457,0.799,0.759,�k�k��,6.5,��
2018/10/27,21:50,0.769,1.155,0.816,1.446,1.043,0.455,0.801,0.758,�k,4.7,��
2018/10/27,22:00,0.769,1.152,0.818,1.447,1.045,0.454,0.801,0.759,�k,5.4,��
2018/10/27,22:10,0.767,1.156,0.815,1.446,1.045,0.456,0.800,0.759,�k�k��,5.2,��
2018/10/27,22:20,0.770,1.155,0.817,1.447,1.047,0.457,0.801,0.759,�k�k��,4.3,��
2018/10/27,22:30,0.770,1.155,0.818,1.446,1.048,0.457,0.802,0.759,�k�k��,5.0,��
2018/10/27,22:40,0.771,1.154,0.817,1.449,1.044,0.456,0.801,0.757,�k�k��,4.6,��
2018/10/27,22:50,0.769,1.155,0.818,1.449,1.046,0.456,0.803,0.759,�k�k��,3.7,��
2018/10/27,23:00,0.769,1.154,0.817,1.448,1.046,0.455,0.802,0.760,�k,4.0,��
2018/10/27,23:10,0.770,1.156,0.816,1.448,1.043,0.456,0.802,0.758,�k,3.9,��
2018/10/27,23:20,0.771,1.153,0.816,1.447,1.047,0.456,0.802,0.759,�k,4.1,��
2018/10/27,23:30,0.769,1.153,0.815,1.446,1.045,0.458,0.802,0.759,�k,4.1,��
2018/10/27,23:40,0.769,1.153,0.818,1.447,1.045,0.456,0.799,0.759,�k,3.6,��
2018/10/27,23:50,0.767,1.155,0.816,1.448,1.046,0.457,0.803,0.759,�k,3.9,��
